Time,TemperatureF,DewpointF,PressureIn,WindDirection,WindDirectionDegrees,WindSpeedMPH,WindSpeedGustMPH,Humidity,HourlyPrecipIn,Conditions,Clouds,dailyrainin,SoftwareType,DateUTC
2013-03-02 00:01:00,33.0,32.0,30.03,North,354,5.0,10.0,96,0.00,,,0.12,,2013-03-02 06:01:00,
2013-03-02 00:11:00,33.0,32.0,30.03,North,354,5.0,10.0,96,0.00,,,0.12,,2013-03-02 06:11:00,
2013-03-02 00:21:00,32.0,31.0,30.03,North,0,7.0,10.0,96,0.00,,,0.12,,2013-03-02 06:21:00,
2013-03-02 00:31:00,32.0,31.0,30.03,North,0,7.0,10.0,96,0.00,,,0.12,,2013-03-02 06:31:00,
2013-03-02 00:42:00,32.0,31.0,30.03,North,0,7.0,10.0,96,0.00,,,0.12,,2013-03-02 06:42:00,
2013-03-02 00:51:00,32.0,30.0,30.03,NW,325,6.0,11.0,94,0.12,,,0.12,,2013-03-02 06:51:00,
2013-03-02 01:01:00,32.0,30.0,30.03,NNW,343,4.0,10.0,94,0.00,,,0.00,,2013-03-02 07:01:00,
2013-03-02 01:11:00,32.0,31.0,30.03,North,353,2.0,10.0,95,0.00,,,0.00,,2013-03-02 07:11:00,
2013-03-02 01:21:00,32.0,31.0,30.03,North,353,2.0,10.0,95,0.00,,,0.00,,2013-03-02 07:21:00,
2013-03-02 01:32:00,32.0,31.0,30.03,NW,322,1.0,10.0,96,0.00,,,0.00,,2013-03-02 07:32:00,
2013-03-02 01:42:00,32.0,31.0,30.03,NW,322,1.0,10.0,96,0.00,,,0.00,,2013-03-02 07:42:00,
2013-03-02 01:51:00,32.0,31.0,30.03,NW,318,2.0,10.0,96,0.00,,,0.00,,2013-03-02 07:51:00,
2013-03-02 02:01:00,32.0,31.0,30.03,NW,311,2.0,8.0,96,0.00,,,0.00,,2013-03-02 08:01:00,
2013-03-02 02:11:00,32.0,31.0,30.03,NW,311,2.0,8.0,96,0.00,,,0.00,,2013-03-02 08:11:00,
2013-03-02 02:21:00,32.0,31.0,30.03,NNW,328,3.0,8.0,95,0.00,,,0.00,,2013-03-02 08:21:00,
2013-03-02 02:32:00,32.0,30.0,30.02,NW,319,0.0,8.0,94,0.00,,,0.00,,2013-03-02 08:32:00,
2013-03-02 02:42:00,32.0,30.0,30.02,NW,319,0.0,8.0,94,0.00,,,0.00,,2013-03-02 08:42:00,
2013-03-02 02:52:00,32.0,31.0,30.02,NW,313,5.0,8.0,95,0.00,,,0.00,,2013-03-02 08:52:00,
2013-03-02 03:01:00,32.0,31.0,30.01,NW,319,3.0,7.0,96,0.00,,,0.00,,2013-03-02 09:01:00,
2013-03-02 03:11:00,32.0,31.0,30.01,NW,316,1.0,7.0,97,0.00,,,0.00,,2013-03-02 09:11:00,
2013-03-02 03:21:00,32.0,31.0,30.01,NW,316,1.0,7.0,97,0.00,,,0.00,,2013-03-02 09:21:00,
2013-03-02 03:32:00,32.0,31.0,30.01,NW,312,1.0,11.0,96,0.00,,,0.00,,2013-03-02 09:32:00,
2013-03-02 03:42:00,32.0,31.0,30.01,NW,312,1.0,11.0,96,0.00,,,0.00,,2013-03-02 09:42:00,
2013-03-02 03:51:00,32.0,31.0,30.01,NNW,332,1.0,11.0,96,0.00,,,0.00,,2013-03-02 09:51:00,
2013-03-02 04:01:00,32.0,31.0,30.00,NW,309,2.0,10.0,95,0.00,,,0.00,,2013-03-02 10:01:00,
2013-03-02 04:16:00,32.0,30.0,30.00,WNW,288,3.0,10.0,94,0.00,,,0.00,,2013-03-02 10:16:00,
2013-03-02 04:21:00,32.0,30.0,30.00,WNW,288,3.0,10.0,94,0.00,,,0.00,,2013-03-02 10:21:00,
2013-03-02 04:32:00,32.0,30.0,30.01,NNW,329,5.0,12.0,93,0.00,,,0.00,,2013-03-02 10:32:00,
2013-03-02 04:42:00,32.0,30.0,30.01,NNW,329,5.0,12.0,93,0.00,,,0.00,,2013-03-02 10:42:00,
2013-03-02 04:51:00,32.0,30.0,30.01,North,354,5.0,12.0,93,0.00,,,0.00,,2013-03-02 10:51:00,
2013-03-02 05:01:00,32.0,30.0,30.01,NNW,330,5.0,12.0,92,0.00,,,0.00,,2013-03-02 11:01:00,
2013-03-02 05:11:00,32.0,30.0,30.01,NNW,330,5.0,12.0,92,0.00,,,0.00,,2013-03-02 11:11:00,
2013-03-02 05:21:00,32.0,30.0,30.01,NNW,335,3.0,12.0,93,0.00,,,0.00,,2013-03-02 11:21:00,
2013-03-02 05:32:00,32.0,30.0,30.01,NW,316,5.0,11.0,91,0.00,,,0.00,,2013-03-02 11:32:00,
2013-03-02 05:42:00,32.0,30.0,30.01,NW,316,5.0,11.0,91,0.00,,,0.00,,2013-03-02 11:42:00,
2013-03-02 05:52:00,32.0,30.0,30.01,NNW,337,5.0,11.0,92,0.00,,,0.00,,2013-03-02 11:52:00,
2013-03-02 06:02:00,32.0,30.0,30.01,WNW,301,2.0,13.0,92,0.00,,,0.00,,2013-03-02 12:02:00,
2013-03-02 06:11:00,32.0,30.0,30.01,WNW,301,2.0,13.0,92,0.00,,,0.00,,2013-03-02 12:11:00,
2013-03-02 06:21:00,32.0,30.0,30.02,North,353,5.0,13.0,92,0.00,,,0.00,,2013-03-02 12:21:00,
2013-03-02 06:33:00,32.0,29.0,30.02,NNW,332,2.0,13.0,90,0.00,,,0.00,,2013-03-02 12:33:00,
2013-03-02 06:43:00,32.0,29.0,30.02,NNW,332,2.0,13.0,90,0.00,,,0.00,,2013-03-02 12:43:00,
2013-03-02 06:53:00,32.0,30.0,30.03,NNW,344,2.0,13.0,91,0.00,,,0.00,,2013-03-02 12:53:00,
2013-03-02 07:01:00,32.0,30.0,30.03,North,353,2.0,12.0,92,0.00,,,0.00,,2013-03-02 13:01:00,
2013-03-02 07:11:00,32.0,30.0,30.03,North,353,2.0,12.0,92,0.00,,,0.00,,2013-03-02 13:11:00,
2013-03-02 07:21:00,32.0,30.0,30.04,North,353,6.0,12.0,92,0.00,,,0.00,,2013-03-02 13:21:00,
2013-03-02 07:32:00,32.0,30.0,30.04,NNW,332,1.0,11.0,92,0.00,,,0.00,,2013-03-02 13:32:00,
2013-03-02 07:42:00,32.0,30.0,30.04,NNW,332,1.0,11.0,92,0.00,,,0.00,,2013-03-02 13:42:00,
2013-03-02 07:52:00,32.0,30.0,30.04,North,356,5.0,11.0,94,0.00,,,0.00,,2013-03-02 13:52:00,
2013-03-02 08:01:00,32.0,31.0,30.05,North,352,6.0,12.0,95,0.00,,,0.00,,2013-03-02 14:01:00,
2013-03-02 08:11:00,32.0,31.0,30.05,North,352,6.0,12.0,95,0.00,,,0.00,,2013-03-02 14:11:00,
2013-03-02 08:21:00,32.0,30.0,30.05,North,350,7.0,12.0,94,0.00,,,0.00,,2013-03-02 14:21:00,
2013-03-02 08:32:00,31.0,29.0,30.06,North,353,1.0,13.0,92,0.00,,,0.00,,2013-03-02 14:32:00,
2013-03-02 08:42:00,31.0,29.0,30.06,North,353,1.0,13.0,92,0.00,,,0.00,,2013-03-02 14:42:00,
2013-03-02 08:52:00,31.0,29.0,30.07,NNW,333,4.0,13.0,91,0.00,,,0.00,,2013-03-02 14:52:00,
2013-03-02 09:02:00,31.0,28.0,30.07,NNE,14,5.0,13.0,87,0.00,,,0.00,,2013-03-02 15:02:00,
2013-03-02 09:11:00,31.0,28.0,30.07,NNE,14,5.0,13.0,87,0.00,,,0.00,,2013-03-02 15:11:00,
2013-03-02 09:21:00,31.0,28.0,30.07,North,350,2.0,13.0,88,0.00,,,0.00,,2013-03-02 15:21:00,
2013-03-02 09:32:00,31.0,27.0,30.08,North,0,3.0,13.0,86,0.00,,,0.00,,2013-03-02 15:32:00,
2013-03-02 09:42:00,31.0,27.0,30.08,North,0,3.0,13.0,86,0.00,,,0.00,,2013-03-02 15:42:00,
2013-03-02 09:52:00,32.0,29.0,30.08,North,352,3.0,13.0,89,0.00,,,0.00,,2013-03-02 15:52:00,
2013-03-02 10:01:00,32.0,29.0,30.09,NE,40,11.0,14.0,89,0.00,,,0.00,,2013-03-02 16:01:00,
2013-03-02 10:11:00,32.0,29.0,30.09,NE,40,11.0,14.0,89,0.00,,,0.00,,2013-03-02 16:11:00,
2013-03-02 10:21:00,31.0,28.0,30.09,North,359,4.0,14.0,89,0.00,,,0.00,,2013-03-02 16:21:00,
2013-03-02 10:32:00,32.0,29.0,30.09,North,354,7.0,14.0,88,0.00,,,0.00,,2013-03-02 16:32:00,
2013-03-02 10:42:00,32.0,29.0,30.09,North,354,7.0,14.0,88,0.00,,,0.00,,2013-03-02 16:42:00,
2013-03-02 10:51:00,32.0,28.0,30.09,WNW,284,9.0,14.0,86,0.00,,,0.00,,2013-03-02 16:51:00,
2013-03-02 11:01:00,32.0,29.0,30.09,NNW,339,5.0,13.0,87,0.00,,,0.00,,2013-03-02 17:01:00,
2013-03-02 11:11:00,32.0,28.0,30.10,NNW,339,6.0,13.0,85,0.00,,,0.00,,2013-03-02 17:11:00,
2013-03-02 11:21:00,32.0,28.0,30.10,NNW,339,6.0,13.0,85,0.00,,,0.00,,2013-03-02 17:21:00,
2013-03-02 11:32:00,32.0,28.0,30.10,NNW,339,6.0,13.0,85,0.00,,,0.00,,2013-03-02 17:32:00,
2013-03-02 11:42:00,32.0,28.0,30.10,NNW,339,6.0,13.0,85,0.00,,,0.00,,2013-03-02 17:42:00,
2013-03-02 11:52:00,32.0,27.0,30.10,NW,316,5.0,16.0,82,0.01,,,0.01,,2013-03-02 17:52:00,
2013-03-02 12:02:00,32.0,27.0,30.10,NW,316,5.0,16.0,82,0.01,,,0.01,,2013-03-02 18:02:00,
2013-03-02 12:11:00,32.0,27.0,30.10,NW,316,5.0,16.0,82,0.01,,,0.01,,2013-03-02 18:11:00,
2013-03-02 12:22:00,33.0,26.0,30.09,North,0,5.0,14.0,76,0.02,,,0.02,,2013-03-02 18:22:00,
2013-03-02 12:32:00,33.0,26.0,30.09,NW,323,6.0,18.0,75,0.02,,,0.03,,2013-03-02 18:32:00,
2013-03-02 12:42:00,33.0,26.0,30.09,NW,323,6.0,18.0,75,0.02,,,0.03,,2013-03-02 18:42:00,
2013-03-02 12:52:00,33.0,26.0,30.09,North,0,5.0,18.0,75,0.02,,,0.03,,2013-03-02 18:52:00,
2013-03-02 13:01:00,33.0,27.0,30.08,NNW,333,2.0,16.0,78,0.02,,,0.04,,2013-03-02 19:01:00,
2013-03-02 13:11:00,33.0,27.0,30.08,NNW,333,2.0,16.0,78,0.02,,,0.04,,2013-03-02 19:11:00,
2013-03-02 13:21:00,33.0,26.0,30.08,NNW,347,4.0,16.0,76,0.02,,,0.04,,2013-03-02 19:21:00,
2013-03-02 13:32:00,33.0,26.0,30.08,NNW,343,3.0,13.0,75,0.01,,,0.04,,2013-03-02 19:32:00,
2013-03-02 13:42:00,33.0,26.0,30.08,NNW,343,3.0,13.0,75,0.01,,,0.04,,2013-03-02 19:42:00,
2013-03-02 13:52:00,33.0,26.0,30.07,North,357,5.0,13.0,74,0.01,,,0.04,,2013-03-02 19:52:00,
2013-03-02 14:01:00,32.0,25.0,30.07,NNW,339,3.0,12.0,75,0.01,,,0.05,,2013-03-02 20:01:00,
2013-03-02 14:11:00,32.0,25.0,30.07,NNW,339,3.0,12.0,75,0.01,,,0.05,,2013-03-02 20:11:00,
2013-03-02 14:21:00,33.0,27.0,30.07,NNW,333,4.0,12.0,77,0.01,,,0.05,,2013-03-02 20:21:00,
2013-03-02 14:32:00,32.0,25.0,30.07,North,356,5.0,12.0,75,0.01,,,0.05,,2013-03-02 20:32:00,
2013-03-02 14:42:00,32.0,25.0,30.07,North,356,5.0,12.0,75,0.01,,,0.05,,2013-03-02 20:42:00,
2013-03-02 14:52:00,33.0,26.0,30.07,NNW,328,5.0,12.0,74,0.01,,,0.05,,2013-03-02 20:52:00,
2013-03-02 15:02:00,33.0,25.0,30.07,NW,309,1.0,14.0,71,0.00,,,0.05,,2013-03-02 21:02:00,
2013-03-02 15:11:00,33.0,25.0,30.07,NW,309,1.0,14.0,71,0.00,,,0.05,,2013-03-02 21:11:00,
2013-03-02 15:22:00,33.0,25.0,30.07,NNW,339,5.0,14.0,71,0.00,,,0.05,,2013-03-02 21:22:00,
2013-03-02 15:32:00,33.0,26.0,30.08,NNE,23,9.0,12.0,74,0.00,,,0.05,,2013-03-02 21:32:00,
2013-03-02 15:42:00,33.0,26.0,30.08,NNE,23,9.0,12.0,74,0.00,,,0.05,,2013-03-02 21:42:00,
2013-03-02 15:52:00,32.0,25.0,30.08,NNW,333,6.0,12.0,75,0.00,,,0.05,,2013-03-02 21:52:00,
2013-03-02 16:02:00,32.0,24.0,30.08,NNW,343,2.0,14.0,72,0.00,,,0.05,,2013-03-02 22:02:00,
2013-03-02 16:11:00,32.0,24.0,30.08,NNW,343,2.0,14.0,72,0.00,,,0.05,,2013-03-02 22:11:00,
2013-03-02 16:21:00,32.0,24.0,30.09,NNW,340,7.0,14.0,73,0.00,,,0.05,,2013-03-02 22:21:00,
2013-03-02 16:32:00,32.0,25.0,30.09,North,359,6.0,16.0,76,0.00,,,0.05,,2013-03-02 22:32:00,
2013-03-02 16:42:00,32.0,25.0,30.09,North,359,6.0,16.0,76,0.00,,,0.05,,2013-03-02 22:42:00,
2013-03-02 16:51:00,31.0,24.0,30.09,NW,316,4.0,16.0,74,0.00,,,0.05,,2013-03-02 22:51:00,
2013-03-02 17:01:00,31.0,24.0,30.10,NNW,330,2.0,13.0,74,0.00,,,0.05,,2013-03-02 23:01:00,
2013-03-02 17:11:00,31.0,24.0,30.10,NNW,330,2.0,13.0,74,0.00,,,0.05,,2013-03-02 23:11:00,
2013-03-02 17:21:00,31.0,24.0,30.10,NNW,330,2.0,13.0,74,0.00,,,0.05,,2013-03-02 23:21:00,
2013-03-02 17:32:00,31.0,24.0,30.10,NW,322,2.0,12.0,74,0.00,,,0.05,,2013-03-02 23:32:00,
2013-03-02 17:42:00,31.0,24.0,30.10,NW,322,2.0,12.0,74,0.00,,,0.05,,2013-03-02 23:42:00,
2013-03-02 17:52:00,31.0,24.0,30.11,North,354,1.0,12.0,76,0.00,,,0.05,,2013-03-02 23:52:00,
2013-03-02 18:02:00,31.0,24.0,30.11,NNW,343,0.0,13.0,76,0.00,,,0.05,,2013-03-03 00:02:00,
2013-03-02 18:11:00,31.0,24.0,30.11,NNW,343,0.0,13.0,76,0.00,,,0.05,,2013-03-03 00:11:00,
2013-03-02 18:22:00,30.0,22.0,30.11,NNE,16,4.0,13.0,73,0.00,,,0.05,,2013-03-03 00:22:00,
2013-03-02 18:32:00,30.0,23.0,30.11,NNW,337,1.0,13.0,74,0.00,,,0.05,,2013-03-03 00:32:00,
2013-03-02 18:42:00,30.0,23.0,30.11,NNW,337,1.0,13.0,74,0.00,,,0.05,,2013-03-03 00:42:00,
2013-03-02 18:52:00,30.0,23.0,30.11,NW,315,0.0,13.0,76,0.00,,,0.05,,2013-03-03 00:52:00,
2013-03-02 19:01:00,29.0,23.0,30.12,NW,318,0.0,7.0,78,0.00,,,0.05,,2013-03-03 01:01:00,
2013-03-02 19:11:00,29.0,23.0,30.12,NW,318,0.0,7.0,78,0.00,,,0.05,,2013-03-03 01:11:00,
2013-03-02 19:21:00,30.0,24.0,30.12,WNW,298,1.0,7.0,79,0.00,,,0.05,,2013-03-03 01:21:00,
2013-03-02 19:32:00,29.0,23.0,30.12,NNW,344,2.0,8.0,79,0.00,,,0.05,,2013-03-03 01:32:00,
2013-03-02 19:42:00,29.0,23.0,30.12,NNW,344,2.0,8.0,79,0.00,,,0.05,,2013-03-03 01:42:00,
2013-03-02 19:52:00,29.0,23.0,30.12,NW,309,3.0,8.0,77,0.00,,,0.05,,2013-03-03 01:52:00,
2013-03-02 20:01:00,30.0,24.0,30.13,NNW,340,2.0,9.0,77,0.00,,,0.05,,2013-03-03 02:01:00,
2013-03-02 20:11:00,29.0,23.0,30.13,NNW,336,2.0,9.0,79,0.00,,,0.05,,2013-03-03 02:11:00,
2013-03-02 20:21:00,29.0,23.0,30.13,NNW,336,2.0,9.0,79,0.00,,,0.05,,2013-03-03 02:21:00,
2013-03-02 20:32:00,29.0,23.0,30.13,NNW,337,0.0,5.0,79,0.00,,,0.05,,2013-03-03 02:32:00,
2013-03-02 20:42:00,29.0,23.0,30.13,NNW,337,0.0,5.0,79,0.00,,,0.05,,2013-03-03 02:42:00,
2013-03-02 20:52:00,29.0,24.0,30.13,NNW,337,1.0,5.0,80,0.00,,,0.05,,2013-03-03 02:52:00,
2013-03-02 21:01:00,29.0,24.0,30.13,NW,305,2.0,4.0,80,0.00,,,0.05,,2013-03-03 03:01:00,
2013-03-02 21:11:00,29.0,24.0,30.13,NW,305,2.0,4.0,80,0.00,,,0.05,,2013-03-03 03:11:00,
2013-03-02 21:21:00,29.0,24.0,30.13,NW,305,1.0,4.0,80,0.00,,,0.05,,2013-03-03 03:21:00,
2013-03-02 21:31:00,29.0,24.0,30.13,NW,305,2.0,6.0,80,0.00,,,0.05,,2013-03-03 03:31:00,
2013-03-02 21:42:00,29.0,24.0,30.13,NW,305,2.0,6.0,80,0.00,,,0.05,,2013-03-03 03:42:00,
2013-03-02 21:51:00,29.0,24.0,30.13,NW,308,2.0,6.0,80,0.00,,,0.05,,2013-03-03 03:51:00,
2013-03-02 22:01:00,29.0,24.0,30.13,NW,308,2.0,5.0,81,0.00,,,0.05,,2013-03-03 04:01:00,
2013-03-02 22:11:00,29.0,24.0,30.13,NW,308,2.0,5.0,81,0.00,,,0.05,,2013-03-03 04:11:00,
2013-03-02 22:21:00,29.0,24.0,30.13,NW,311,2.0,5.0,81,0.00,,,0.05,,2013-03-03 04:21:00,
2013-03-02 22:32:00,29.0,24.0,30.13,WNW,302,1.0,6.0,80,0.00,,,0.05,,2013-03-03 04:32:00,
2013-03-02 22:42:00,29.0,24.0,30.13,WNW,302,1.0,6.0,80,0.00,,,0.05,,2013-03-03 04:42:00,
2013-03-02 22:51:00,29.0,24.0,30.13,NW,305,1.0,6.0,81,0.00,,,0.05,,2013-03-03 04:51:00,
2013-03-02 23:02:00,28.0,22.0,30.13,NW,308,2.0,8.0,79,0.00,,,0.05,,2013-03-03 05:02:00,
2013-03-02 23:11:00,28.0,22.0,30.13,NW,308,2.0,8.0,79,0.00,,,0.05,,2013-03-03 05:11:00,
2013-03-02 23:22:00,28.0,22.0,30.13,NW,308,0.0,8.0,79,0.00,,,0.05,,2013-03-03 05:22:00,
2013-03-02 23:32:00,28.0,21.0,30.13,North,0,6.0,6.0,76,0.00,,,0.05,,2013-03-03 05:32:00,
2013-03-02 23:42:00,28.0,21.0,30.13,North,0,6.0,6.0,76,0.00,,,0.05,,2013-03-03 05:42:00,
2013-03-02 23:52:00,28.0,20.0,30.13,North,6,5.0,5.0,72,0.00,,,0.05,,2013-03-03 05:52:00,